Wetbulb
57.27 57.10 57.15 57.53 57.89 58.16 58.25 58.46 58.67 58.81 58.98 59.17 59.15 59.27 59.43 59.73 59.67 58.48 52.85 58.86 62.20 73.85 72.79 68.82 66.90 64.56 65.34 64.78 68.11 64.76 56.58 53.02 55.19 55.00 51.79 57.94 58.74 63.01 65.99 65.58 67.25 67.65 66.25 67.12 69.44
56.88 56.75 56.77 56.91 57.87 57.99 58.09 58.13 58.26 58.44 58.39 58.52 58.60 58.94 59.32 59.83 57.42 54.90 63.59 71.31 72.59 73.82 67.26 64.41 61.83 64.07 61.55 62.99 63.23 59.67 53.28 54.30 57.61 55.50 53.05 59.10 60.41 61.96 62.92 64.01 65.52 66.08 67.38 68.19 68.67
56.69 57.08 57.15 56.63 56.98 57.65 57.67 57.73 57.94 57.98 58.05 58.22 58.50 58.86 59.28 59.48 51.93 50.39 72.99 74.54 73.22 72.29 62.89 60.88 58.91 57.79 58.04 58.86 58.43 54.97 51.76 55.42 54.61 54.07 54.34 53.82 60.29 63.98 62.06 61.34 64.43 63.59 65.37 66.58 67.85
55.91 56.23 56.67 56.89 57.04 57.31 57.33 57.44 57.51 57.45 57.58 57.81 58.39 58.75 59.32 57.55 43.00 60.17 73.95 74.04 73.80 67.17 61.58 57.81 55.71 53.33 55.33 55.72 59.06 53.81 56.99 54.97 53.41 53.64 52.48 52.63 60.42 62.88 63.03 61.11 67.60 67.27 67.93 67.80 66.87
55.27 55.51 55.82 56.36 56.70 56.94 56.93 57.11 57.00 56.90 57.28 57.55 58.15 58.92 55.28 46.13 48.80 63.52 74.03 72.17 65.85 63.87 59.03 56.61 54.55 55.44 54.37 56.38 57.21 54.36 54.22 53.30 52.52 52.63 53.75 54.70 60.57 62.92 62.85 67.22 68.38 68.11 68.53 67.97 67.70
55.66 55.90 56.12 56.39 56.38 56.35 56.53 56.41 56.32 56.59 56.95 57.53 58.14 58.55 53.22 45.96 53.02 69.24 66.82 63.99 62.92 60.60 58.80 58.53 55.81 59.13 57.45 56.99 53.49 54.72 53.56 51.54 51.74 52.98 53.54 52.69 53.07 59.82 63.19 68.07 67.10 66.98 66.50 67.62 68.20
55.75 55.58 55.72 55.89 56.18 56.09 56.06 55.88 56.23 56.44 57.16 57.52 57.93 57.73 52.45 46.51 52.99 67.31 64.84 61.54 63.34 60.36 57.24 59.74 57.78 56.52 56.52 54.04 55.30 50.97 48.20 49.64 51.54 51.51 50.60 52.15 50.28 51.48 63.82 67.36 66.15 66.32 66.57 67.13 67.71
55.68 55.68 55.64 55.68 55.82 55.79 55.53 55.22 55.78 56.93 58.28 59.74 58.87 56.58 44.59 52.90 55.17 55.90 63.08 62.32 63.23 62.57 60.61 60.42 59.49 56.14 53.89 54.31 49.32 46.46 44.76 42.59 49.39 50.31 51.28 50.76 45.29 52.31 65.50 65.70 64.99 66.03 66.53 66.96 67.38
55.31 55.31 55.12 55.21 55.31 55.21 54.43 54.56 56.83 58.08 60.11 60.20 53.88 48.82 44.41 58.17 55.25 56.39 55.96 57.32 60.47 61.49 60.70 63.49 57.57 52.92 52.23 45.14 42.65 42.50 40.29 41.56 45.73 50.77 50.16 49.29 46.76 51.96 64.72 65.12 64.33 65.10 65.77 66.62 66.77
55.20 55.11 54.87 54.74 54.78 54.24 53.79 55.11 56.70 57.10 58.73 59.67 58.45 46.77 49.19 48.89 53.36 54.43 54.19 54.28 55.05 58.20 59.24 57.64 52.05 48.08 44.47 42.53 39.30 39.54 40.17 40.65 43.41 48.10 48.26 47.39 47.67 50.57 63.48 64.30 64.03 64.40 65.18 65.74 66.09
55.15 54.88 54.66 54.19 53.99 53.70 51.31 48.47 45.90 44.46 46.21 43.30 45.90 48.19 50.14 53.69 55.08 51.70 53.47 52.50 56.23 56.11 51.22 53.96 48.49 45.32 47.79 45.52 46.53 44.86 42.95 42.77 46.12 49.28 46.74 47.18 46.96 48.56 62.97 63.49 63.20 63.73 64.49 65.03 65.88
55.07 54.78 54.35 53.75 52.97 53.14 46.83 44.62 46.57 45.71 40.37 47.50 48.16 48.71 51.46 52.30 48.20 51.07 52.88 48.69 51.83 48.89 51.92 49.14 46.19 51.77 52.76 49.02 47.31 45.52 43.42 43.30 46.24 49.31 46.12 46.26 46.09 48.63 59.84 63.02 63.67 63.84 64.12 64.85 65.23
54.92 54.53 53.89 52.95 52.30 47.90 43.89 45.15 47.64 42.93 39.32 44.19 46.47 46.45 47.40 48.03 46.95 48.38 50.70 49.33 46.95 45.55 48.44 48.62 49.77 54.18 51.39 49.21 46.55 43.99 42.03 44.69 43.68 47.96 46.00 45.07 44.22 45.56 50.07 57.56 63.73 64.79 65.36 65.75 65.68
54.73 54.30 53.34 51.85 48.54 44.55 46.66 46.70 47.19 46.27 36.04 41.40 45.49 47.92 48.44 48.01 46.00 52.01 51.88 49.86 46.53 44.88 45.75 46.28 49.90 50.58 48.94 47.47 47.19 41.12 48.27 47.61 46.28 42.97 40.40 44.25 36.93 42.66 45.58 45.96 54.01 62.72 64.03 65.01 66.24
54.42 54.02 52.84 52.20 43.31 44.17 50.22 47.32 48.84 44.38 29.93 45.75 47.18 50.74 49.16 45.84 48.59 49.91 52.11 47.92 45.45 45.69 44.52 43.54 46.34 45.68 46.09 47.68 48.05 45.71 48.72 47.18 46.84 43.32 38.11 41.44 36.77 41.25 43.37 45.56 47.84 58.80 63.29 65.25 67.01
54.02 53.34 52.57 47.50 43.47 46.11 48.05 46.07 43.23 37.07 30.62 43.24 46.81 45.94 45.45 45.90 47.81 49.83 48.52 48.63 48.94 45.61 44.72 44.72 48.23 46.83 47.04 49.12 48.99 49.79 47.04 43.57 40.40 37.25 33.86 38.95 38.41 39.15 41.61 44.96 47.25 57.73 63.21 65.40 67.33
53.13 51.82 50.30 49.04 44.32 45.14 45.75 43.11 35.71 31.13 42.68 41.15 41.82 44.12 42.50 43.33 45.68 47.33 46.58 42.35 41.02 37.71 37.64 42.84 44.31 47.24 49.14 45.81 47.53 46.32 39.79 37.78 34.14 33.50 34.66 39.21 38.07 41.43 44.70 48.04 49.44 50.76 61.36 65.39 67.60
51.60 50.61 48.32 48.99 46.42 46.46 43.18 39.24 29.32 39.09 39.72 44.71 43.45 42.95 41.27 43.72 44.39 45.82 44.22 42.17 43.08 41.20 38.28 37.74 38.56 44.55 47.87 45.89 43.30 42.94 39.98 35.16 30.63 33.14 37.78 40.18 36.74 42.86 49.10 50.47 52.46 55.12 58.16 65.43 67.12
50.10 42.85 42.13 44.80 48.38 44.63 40.88 32.25 34.37 38.35 43.79 42.18 41.83 38.64 39.53 43.36 42.95 43.13 42.14 42.61 45.45 44.56 38.52 36.13 38.60 46.94 47.35 47.78 46.83 43.01 40.47 43.47 39.42 33.25 33.84 37.23 41.31 47.23 49.34 51.91 59.95 59.30 59.45 63.96 66.83
42.86 40.65 43.47 48.46 48.76 43.15 37.13 34.65 36.00 42.22 43.78 42.75 37.56 39.84 37.09 40.91 39.98 40.32 41.45 45.26 45.54 48.16 45.59 42.95 39.20 43.96 48.39 47.83 48.59 45.25 47.46 40.71 39.18 32.18 29.79 35.81 38.41 40.50 45.81 50.49 58.94 61.26 58.74 64.09 67.02
39.72 39.96 46.54 48.39 46.60 41.59 33.77 33.79 40.26 45.47 45.96 42.32 40.72 39.51 40.25 39.45 39.88 39.07 42.02 45.78 46.96 47.18 47.57 44.08 40.55 43.17 46.34 43.97 43.87 43.78 41.97 42.94 42.33 38.81 33.44 31.70 36.83 44.68 49.25 53.54 53.46 60.59 64.36 65.80 67.27
37.45 38.84 47.21 47.45 40.85 35.30 36.40 40.45 45.58 45.41 47.97 45.25 43.61 42.22 40.04 40.86 39.16 39.65 41.47 44.62 48.65 48.15 45.09 44.22 39.38 37.56 42.73 47.82 49.00 46.34 44.10 42.57 40.31 38.09 34.61 35.38 37.14 51.97 55.64 58.78 58.77 61.75 65.91 67.03 68.10
34.36 35.52 45.06 46.25 35.48 33.82 38.21 42.88 44.40 46.31 46.63 45.06 44.73 46.82 44.74 40.02 37.89 40.99 44.20 48.22 49.72 48.59 46.59 46.40 39.07 35.52 39.86 44.90 48.07 44.55 44.83 46.01 42.36 39.46 38.36 35.33 40.40 55.05 58.07 57.65 61.04 62.10 64.45 66.48 67.60
36.16 36.38 39.57 40.32 37.65 37.01 36.44 39.04 42.59 49.28 47.98 47.57 45.87 46.03 43.39 41.77 41.33 39.97 44.48 50.00 52.43 51.13 59.45 50.33 39.01 39.85 37.19 42.21 46.61 45.26 47.32 45.18 43.57 37.51 38.58 39.00 40.19 51.58 53.53 53.71 54.55 57.72 63.03 64.61 64.32
37.25 37.47 36.97 33.90 36.57 35.25 35.24 39.47 41.60 41.24 47.71 46.35 44.02 44.85 42.20 38.21 41.80 42.19 45.20 47.01 51.41 53.01 48.16 45.73 40.98 39.98 44.31 47.25 51.46 48.19 50.05 47.66 46.06 44.39 41.30 45.47 47.84 53.97 54.12 53.83 54.72 57.14 59.99 59.77 60.80
38.15 36.85 38.11 36.04 35.90 35.04 36.28 36.20 40.00 41.64 43.08 44.76 42.70 45.97 43.49 39.91 43.35 42.52 43.69 42.37 44.30 48.66 45.50 43.30 40.92 42.20 42.52 47.89 51.20 51.75 52.77 52.80 52.34 51.56 51.96 52.92 52.18 57.86 58.30 59.36 59.01 58.02 61.38 61.94 59.31
40.42 39.42 38.89 37.93 34.38 34.15 34.37 38.02 40.46 41.22 44.43 47.54 47.05 45.03 44.70 45.78 48.90 49.14 49.03 47.93 47.67 42.92 42.32 41.39 41.49 38.72 36.74 45.68 46.50 44.63 50.86 51.28 51.52 51.99 52.68 49.06 52.57 57.25 56.10 57.67 58.68 59.65 61.67 63.72 62.08
MSLP
1018.45 1017.98 1017.49 1016.99 1016.39 1015.85 1015.30 1014.73 1014.27 1013.82 1013.38 1012.66 1011.88 1011.34 1010.76 1010.25 1009.29 1009.30 1007.91 1005.11 1005.05 1005.47 1005.90 1006.96 1007.53 1007.31 1007.51 1007.52 1007.18 1006.96 1007.55 1007.04 1006.06 1005.03 1003.56 1002.24 1002.46 1002.41 1002.43 1003.46 1004.10 1004.64 1004.94 1005.26 1007.21
1018.33 1017.86 1017.38 1016.83 1016.34 1015.81 1015.20 1014.65 1014.15 1013.59 1013.15 1012.57 1011.89 1011.27 1010.84 1010.31 1009.49 1007.68 1004.59 1004.50 1005.04 1005.35 1005.74 1006.14 1006.56 1006.85 1007.04 1006.72 1006.53 1006.67 1006.84 1005.95 1004.72 1004.02 1003.26 1002.34 1002.24 1002.15 1003.04 1003.50 1004.29 1004.70 1005.59 1006.38 1007.54
1018.17 1017.58 1017.06 1016.56 1016.03 1015.55 1015.03 1014.45 1013.86 1013.26 1012.79 1012.22 1011.62 1011.07 1010.64 1010.44 1009.23 1005.51 1003.96 1004.09 1004.62 1005.05 1005.12 1005.38 1005.53 1005.94 1006.14 1005.79 1005.60 1005.52 1005.34 1004.78 1003.66 1002.88 1003.00 1002.34 1002.08 1002.34 1002.93 1003.75 1003.67 1004.11 1005.84 1006.80 1007.79
1018.43 1017.84 1017.14 1016.32 1015.59 1015.04 1014.54 1014.03 1013.49 1012.98 1012.48 1012.01 1011.43 1010.77 1010.27 1010.09 1007.97 1004.43 1003.97 1004.09 1004.51 1004.85 1005.11 1005.20 1005.36 1005.62 1005.62 1005.26 1004.79 1004.79 1004.27 1003.93 1003.26 1002.05 1002.22 1002.22 1001.61 1002.26 1002.24 1002.45 1002.87 1003.44 1004.49 1006.27 1007.45
1018.63 1018.02 1017.35 1016.61 1015.78 1014.93 1014.14 1013.46 1012.93 1012.50 1012.14 1011.77 1011.36 1010.86 1009.80 1009.25 1006.65 1004.37 1004.42 1004.40 1004.58 1004.76 1004.86 1005.04 1005.26 1005.31 1005.16 1004.79 1004.59 1004.28 1003.61 1003.09 1002.72 1002.01 1001.15 1001.13 1001.64 1001.62 1001.84 1002.22 1003.35 1004.58 1005.12 1005.79 1006.66
1018.64 1017.97 1017.34 1016.68 1015.86 1014.87 1013.95 1013.09 1012.34 1011.84 1011.53 1011.27 1011.18 1011.04 1010.37 1008.56 1004.61 1004.34 1004.63 1004.81 1004.78 1004.83 1004.73 1004.90 1004.58 1004.51 1004.64 1004.48 1004.35 1003.76 1003.48 1002.86 1002.15 1001.74 1001.52 1001.23 1000.70 1001.51 1001.83 1002.17 1003.19 1004.61 1004.71 1005.33 1005.86
1018.81 1017.96 1017.26 1016.49 1015.54 1014.51 1013.64 1012.55 1011.86 1011.29 1010.73 1010.51 1010.58 1010.77 1009.66 1005.83 1004.27 1004.47 1004.49 1004.50 1004.59 1004.69 1004.72 1004.28 1004.36 1004.43 1004.39 1004.21 1003.71 1003.66 1003.62 1002.95 1002.15 1001.87 1001.82 1001.28 1000.79 1000.97 1001.29 1002.01 1002.93 1004.14 1004.13 1004.68 1005.25
1018.74 1017.99 1017.36 1016.49 1015.47 1014.24 1013.22 1011.83 1011.15 1010.56 1009.96 1009.58 1010.10 1010.13 1008.12 1004.39 1004.09 1004.08 1004.34 1004.30 1004.35 1004.29 1004.35 1003.99 1004.14 1004.47 1004.43 1004.00 1003.98 1004.12 1004.09 1003.55 1002.25 1002.23 1001.89 1001.77 1001.69 1000.26 1001.38 1002.15 1002.61 1003.47 1003.85 1004.16 1004.68
1018.57 1017.83 1017.13 1016.15 1015.18 1013.79 1012.60 1011.10 1010.47 1009.89 1009.62 1009.62 1010.05 1009.57 1007.05 1004.18 1004.03 1003.55 1003.89 1004.06 1003.74 1003.69 1003.74 1003.89 1004.19 1004.55 1004.49 1004.81 1005.06 1005.07 1004.83 1004.19 1002.85 1002.30 1002.29 1002.37 1001.98 1000.70 1001.07 1001.67 1002.00 1003.11 1003.47 1003.71 1004.28
1018.44 1017.73 1016.86 1015.94 1015.06 1014.00 1012.27 1010.29 1009.75 1009.86 1009.88 1009.79 1009.32 1009.23 1005.92 1004.36 1004.03 1003.42 1003.54 1003.55 1003.56 1003.55 1003.84 1004.05 1004.26 1004.74 1005.48 1005.78 1005.68 1005.44 1005.28 1004.58 1003.75 1002.44 1002.43 1002.45 1001.91 1001.28 1001.03 1001.69 1001.61 1002.73 1002.96 1003.27 1003.52
1018.56 1017.83 1017.05 1016.02 1014.79 1013.83 1012.38 1010.54 1010.91 1010.40 1009.93 1010.07 1009.01 1008.29 1006.45 1003.98 1004.13 1003.20 1003.27 1003.57 1003.33 1003.55 1004.16 1003.96 1004.35 1004.43 1004.55 1005.12 1005.06 1005.24 1005.19 1004.79 1003.49 1002.53 1003.23 1002.28 1002.05 1001.42 1001.27 1001.84 1002.38 1002.41 1002.64 1002.79 1003.08
1018.69 1017.84 1017.05 1015.84 1014.37 1013.65 1013.23 1012.92 1013.02 1013.37 1010.82 1008.46 1007.13 1006.64 1005.48 1004.92 1004.86 1002.64 1003.07 1003.51 1003.26 1003.58 1003.90 1004.04 1003.52 1003.99 1004.15 1004.53 1004.72 1005.05 1005.11 1004.44 1003.41 1002.46 1003.38 1002.50 1002.21 1001.02 1001.04 1000.89 1001.02 1001.39 1002.00 1002.10 1003.18
1018.76 1017.86 1017.06 1015.66 1014.10 1013.67 1014.04 1012.88 1012.82 1012.96 1012.10 1007.46 1006.47 1005.86 1004.63 1004.63 1004.25 1002.40 1002.89 1002.74 1002.92 1003.31 1003.58 1003.33 1002.94 1003.34 1003.74 1003.98 1004.39 1004.41 1004.78 1004.23 1004.06 1002.83 1002.93 1002.84 1002.18 1001.19 1000.55 1000.50 1000.85 1001.09 1001.01 1001.50 1002.01
1018.34 1017.75 1017.18 1016.03 1014.33 1014.89 1013.47 1012.32 1012.25 1012.17 1011.56 1008.36 1006.02 1004.82 1004.36 1004.09 1003.49 1001.74 1001.16 1001.95 1002.32 1002.72 1003.20 1003.18 1002.73 1003.07 1003.05 1003.18 1003.97 1003.96 1003.33 1004.02 1004.26 1004.23 1003.79 1003.23 1002.88 1001.74 1000.71 1000.63 1000.38 1000.17 1000.91 1001.08 1001.72
1018.14 1017.77 1017.17 1017.10 1016.50 1015.33 1012.84 1012.30 1011.94 1011.81 1010.99 1007.66 1005.87 1004.57 1004.57 1004.45 1003.21 1001.16 1000.19 1001.04 1001.68 1002.31 1003.02 1002.46 1002.20 1002.27 1002.18 1002.02 1002.80 1002.62 1002.88 1003.68 1004.04 1004.52 1004.57 1003.53 1003.79 1001.68 1001.12 1000.56 999.85 999.99 1000.05 1000.44 1000.77
1017.71 1017.32 1017.11 1016.78 1016.79 1014.16 1013.11 1012.71 1012.15 1012.24 1010.46 1008.01 1006.66 1005.93 1005.50 1004.43 1003.57 1001.77 1000.92 1000.66 1000.72 1001.67 1002.12 1002.16 1001.57 1001.51 1001.27 1000.98 1001.78 1001.90 1002.66 1003.61 1004.58 1005.16 1005.24 1003.98 1003.35 1001.64 1001.12 1000.05 999.13 999.16 999.28 999.47 1000.25
1017.22 1016.27 1016.60 1016.07 1014.56 1013.38 1013.14 1012.85 1013.13 1012.25 1010.41 1009.23 1008.17 1007.36 1006.68 1005.53 1004.12 1002.98 1001.93 1001.43 1001.36 1002.01 1002.09 1002.09 1001.63 1000.99 1000.83 1001.11 1001.54 1002.20 1003.47 1004.59 1005.58 1005.82 1004.90 1003.60 1003.04 1000.70 999.93 999.07 998.42 998.07 998.35 998.64 998.97
1016.49 1015.33 1014.85 1014.33 1013.80 1013.65 1013.60 1013.56 1013.50 1012.25 1010.94 1009.63 1009.06 1008.02 1007.36 1006.28 1004.87 1003.81 1002.96 1002.64 1001.99 1001.96 1002.50 1002.45 1001.67 1000.77 1000.25 1000.50 1000.90 1001.87 1003.16 1004.62 1005.26 1005.79 1005.22 1003.97 1002.09 999.67 998.67 997.63 997.46 997.02 996.86 997.30 998.45
1015.96 1014.94 1014.53 1013.31 1013.56 1014.06 1014.15 1014.38 1013.41 1012.31 1011.07 1010.46 1009.55 1008.95 1008.11 1006.88 1006.43 1005.23 1004.01 1003.43 1002.70 1002.23 1002.48 1002.33 1001.59 1000.15 999.90 999.94 1000.35 1001.06 1002.14 1002.49 1004.08 1005.21 1005.18 1003.88 1001.60 999.47 998.25 997.44 997.11 996.22 996.14 996.53 997.35
1017.13 1016.35 1014.56 1013.23 1013.49 1013.88 1014.42 1014.54 1013.42 1012.10 1011.14 1010.41 1010.19 1009.39 1008.79 1007.80 1007.09 1006.02 1004.72 1003.67 1003.08 1002.14 1001.95 1001.89 1001.73 1000.56 999.77 999.26 999.29 1000.06 1000.59 1002.23 1003.80 1004.99 1004.97 1003.90 1002.24 1000.09 999.17 998.46 997.79 997.06 996.60 996.73 997.60
1017.29 1016.38 1013.94 1013.40 1013.80 1014.43 1015.13 1014.50 1013.03 1011.59 1011.01 1010.48 1009.66 1009.43 1008.65 1008.18 1007.25 1006.48 1005.49 1004.11 1003.33 1002.60 1002.00 1002.11 1002.67 1001.78 1000.65 1000.10 999.70 1000.01 1000.17 1001.22 1002.62 1004.71 1004.69 1004.15 1002.28 1000.23 999.46 999.34 998.63 998.09 997.55 997.49 997.67
1018.20 1016.87 1014.14 1013.80 1014.64 1015.54 1015.30 1014.01 1012.50 1011.08 1010.06 1009.83 1009.40 1009.01 1008.71 1008.01 1007.40 1006.68 1005.86 1004.78 1003.72 1003.28 1003.11 1002.81 1003.25 1003.21 1001.75 1000.14 999.65 999.59 999.93 1000.80 1002.39 1004.20 1004.70 1003.72 1001.90 1000.54 1000.34 999.82 999.22 998.58 998.67 998.75 999.53
1019.31 1017.80 1014.42 1014.02 1015.50 1015.93 1014.99 1013.88 1012.55 1011.34 1010.28 1009.61 1009.17 1008.87 1008.61 1008.54 1007.98 1007.09 1006.33 1004.94 1004.24 1003.61 1003.48 1003.37 1004.16 1004.06 1002.67 1001.42 1000.19 1000.28 1000.00 999.98 1001.31 1002.56 1003.73 1003.95 1001.98 1001.56 1001.61 1001.27 1000.31 999.30 999.11 999.06 999.76
1019.64 1018.66 1016.63 1016.02 1016.20 1016.02 1015.63 1014.25 1012.87 1011.23 1010.44 1009.78 1009.46 1009.13 1008.95 1008.69 1008.53 1008.13 1007.15 1005.63 1004.70 1004.04 1003.54 1003.70 1004.59 1004.82 1004.37 1003.33 1002.57 1001.39 1000.65 1000.04 1000.75 1002.78 1003.22 1003.70 1003.40 1003.19 1003.76 1003.61 1003.32 1002.56 1001.56 1001.03 1002.31
1020.01 1019.59 1018.75 1017.84 1017.27 1016.86 1016.15 1014.84 1013.60 1012.45 1010.90 1010.20 1009.82 1009.64 1009.38 1009.35 1009.20 1008.82 1007.94 1006.67 1005.03 1004.44 1004.16 1004.39 1005.07 1004.82 1004.19 1003.37 1002.35 1001.74 1001.38 1000.78 1001.41 1002.22 1003.37 1004.51 1005.07 1004.97 1005.53 1005.17 1004.78 1004.56 1003.83 1003.86 1002.62
1020.20 1019.91 1019.22 1018.54 1017.81 1017.19 1016.29 1015.35 1014.38 1013.19 1012.15 1010.71 1010.20 1009.49 1009.30 1009.43 1009.53 1009.41 1008.73 1007.90 1006.89 1005.43 1005.43 1005.26 1005.42 1005.15 1004.17 1003.38 1003.08 1002.50 1002.47 1001.87 1002.62 1003.48 1004.13 1005.05 1005.63 1006.16 1006.30 1005.84 1005.52 1005.22 1004.94 1005.22 1004.86
1020.08 1019.85 1019.71 1018.93 1018.28 1017.66 1016.74 1015.95 1014.81 1013.98 1012.08 1011.07 1010.44 1009.91 1009.42 1009.04 1008.97 1008.45 1007.96 1007.57 1007.08 1006.93 1006.33 1005.98 1005.84 1005.89 1005.26 1004.45 1003.98 1004.08 1003.90 1004.41 1003.63 1003.86 1004.90 1005.59 1006.48 1006.63 1006.85 1006.49 1006.73 1006.44 1006.12 1006.38 1006.52
Wind_Speed
18 18 19 19 18 19 19 19 19 18 18 19 20 20 19 18 17 4 7 11 6 18 11 10 1 4 5 4 6 4 2 4 4 3 8 0 4 4 6 14 6 8 6 8 20
19 19 19 19 19 19 19 19 18 18 18 18 18 19 17 16 4 6 10 4 9 16 6 8 6 8 4 5 5 5 4 6 7 3 6 5 5 9 5 8 4 9 13 19 19
22 22 21 22 22 20 19 19 19 18 18 19 19 19 16 10 5 7 4 5 15 16 3 2 3 4 5 5 4 5 4 4 10 5 2 6 10 2 12 4 8 21 18 19 19
22 23 23 24 24 24 23 21 20 18 18 18 19 20 20 2 6 3 7 10 10 9 3 3 3 3 3 4 4 3 7 5 6 9 2 4 4 4 13 7 13 24 26 23 21
22 23 24 24 24 25 26 25 22 19 18 16 16 16 7 4 11 2 3 6 6 5 4 6 5 5 4 3 2 4 5 6 6 11 11 3 7 9 13 7 18 19 22 22 20
22 22 23 23 24 25 27 26 25 22 18 15 12 11 1 7 5 5 5 3 1 2 2 6 7 8 4 5 3 4 6 9 7 10 6 7 5 7 4 20 22 22 23 21 21
22 23 25 26 27 27 28 29 26 23 20 15 8 4 3 21 2 4 7 6 5 5 4 5 4 1 1 5 4 3 6 7 8 3 4 5 14 4 12 23 25 23 21 20 19
21 22 23 25 26 28 30 32 27 22 18 9 7 4 9 6 5 8 6 5 5 6 4 7 4 3 4 4 6 3 3 3 5 8 5 8 11 18 19 23 24 22 19 19 19
21 23 24 26 27 30 32 32 25 8 2 12 4 3 11 7 2 5 7 6 7 6 6 6 1 4 5 1 5 7 5 4 11 6 1 3 14 13 16 21 23 20 19 18 16
23 25 27 28 28 29 32 29 11 2 3 4 3 2 7 5 6 10 5 4 6 2 1 6 3 2 4 3 8 5 4 4 4 6 6 11 16 9 14 18 23 20 18 18 18
22 23 25 27 29 27 16 7 10 8 5 5 11 9 24 17 8 7 4 6 4 3 6 5 4 8 14 8 4 3 4 9 9 14 1 14 12 5 13 13 13 17 17 17 18
22 24 25 28 31 24 3 6 7 3 15 13 20 18 20 4 10 25 8 7 6 8 5 3 8 9 5 5 7 5 6 12 11 15 6 11 11 7 12 20 21 21 17 17 12
19 21 22 28 33 4 2 3 4 1 4 11 5 4 8 6 9 23 8 5 5 6 9 17 10 7 5 6 6 5 6 15 9 17 4 5 8 6 2 7 15 16 20 14 21
20 21 21 29 5 6 7 5 5 2 5 10 7 5 3 3 7 10 12 11 6 9 9 12 8 11 8 10 8 9 12 12 11 5 10 5 8 8 7 4 10 21 18 18 19
20 18 18 8 5 4 7 10 11 4 4 3 7 1 8 4 8 5 5 5 14 9 6 9 9 7 11 18 8 15 7 10 11 8 1 5 2 9 2 10 7 13 19 19 21
22 20 17 1 2 9 11 10 3 7 6 7 5 10 13 4 6 7 5 2 6 8 4 8 4 5 13 16 10 7 3 3 4 4 3 9 7 5 5 8 8 10 20 21 20
23 25 14 3 6 1 6 5 7 4 6 7 6 12 8 6 10 7 8 2 6 5 5 3 7 7 7 6 3 4 6 7 6 3 9 7 3 9 7 9 13 11 18 21 22
26 27 3 6 4 4 4 7 2 3 5 5 6 10 4 9 12 10 10 8 4 5 3 6 13 7 7 9 11 7 10 8 6 7 11 5 7 9 10 9 11 17 18 21 21
24 5 5 4 6 2 6 4 6 5 4 8 9 4 6 9 3 8 6 3 5 2 4 6 6 8 5 8 9 6 6 10 4 1 2 6 9 9 6 10 8 10 13 22 22
5 5 5 2 6 5 6 3 3 4 6 2 3 3 5 11 9 8 6 4 8 13 2 3 2 2 5 2 3 8 5 2 2 3 5 5 6 7 9 9 8 4 6 14 16
4 5 4 5 2 6 3 6 6 7 4 3 8 6 8 5 4 5 5 8 7 11 7 5 4 8 1 4 8 3 2 4 4 5 6 2 8 7 8 6 10 7 4 11 17
3 3 3 1 5 1 1 4 5 8 7 8 4 4 4 4 5 2 4 4 9 6 5 3 3 2 9 9 6 8 6 6 6 7 4 4 9 5 6 10 8 7 7 7 7
2 4 4 5 0 3 6 6 5 5 6 5 3 1 2 3 5 3 6 8 7 6 2 4 3 4 11 9 5 3 6 7 5 6 8 5 8 3 11 13 7 7 8 9 10
3 4 5 5 1 3 4 5 6 7 6 5 3 3 3 5 2 5 8 6 16 7 4 6 2 5 6 9 6 6 7 5 5 4 4 4 7 14 16 12 18 18 13 12 15
2 1 2 4 3 3 2 3 6 7 4 4 5 4 1 4 7 5 4 9 13 6 7 3 2 5 7 10 5 1 12 5 6 5 6 3 3 13 10 9 10 13 16 13 7
2 3 5 3 3 4 3 3 3 7 5 7 3 9 2 2 5 7 3 4 7 9 7 3 4 3 3 7 5 3 15 9 7 8 12 8 8 10 6 13 17 13 13 16 14
2 2 4 3 4 2 2 4 5 8 6 4 5 4 5 3 6 13 13 10 10 2 5 2 2 5 6 14 4 3 6 10 4 6 3 3 3 4 13 17 16 17 17 13 7
Wind_Direction
357 353 349 345 341 337 335 332 331 331 328 323 324 322 323 323 313 149 246 221 179 156 120 121 171 214 171 228 218 170 338 284 265 254 288 310 143 187 145 137 182 192 143 145 144
354 351 347 343 339 334 331 329 327 326 324 321 320 318 322 329 312 265 243 173 130 157 134 168 181 170 216 205 200 144 172 229 233 259 332 274 205 155 117 155 5 93 87 121 141
351 347 344 342 339 334 329 326 323 322 321 319 318 317 321 321 325 252 62 204 157 176 130 195 267 196 207 175 212 189 222 286 282 261 166 274 224 183 124 232 209 152 146 149 154
349 346 342 339 337 334 329 324 321 317 316 315 316 318 318 212 289 324 44 99 143 168 158 167 202 210 239 228 230 317 233 239 275 297 141 209 149 179 182 210 171 157 155 153 165
346 343 338 334 333 330 326 323 318 313 310 311 311 318 349 340 252 284 80 101 123 155 197 170 183 187 225 245 260 225 292 284 276 301 322 278 177 193 221 136 147 154 155 164 170
342 341 336 333 331 328 323 318 314 313 308 302 303 305 62 277 244 143 135 45 82 172 238 172 203 202 238 239 173 224 273 289 300 298 357 3 315 163 173 145 153 174 170 173 175
337 338 334 331 330 327 322 312 313 310 303 299 275 244 164 239 261 151 170 182 194 188 231 232 204 223 72 306 237 248 315 321 294 312 341 332 323 206 162 160 161 181 182 180 185
336 335 331 328 328 324 318 311 312 306 303 288 193 205 240 244 284 286 157 253 235 216 234 285 178 243 189 261 356 0 74 320 277 352 323 76 280 296 162 166 172 184 187 184 192
337 335 332 331 330 324 317 310 311 315 57 121 129 176 266 299 232 266 174 237 219 219 232 266 166 217 325 88 2 2 248 263 317 135 250 85 292 303 181 181 170 189 192 193 189
337 335 335 332 327 323 316 304 288 330 168 220 254 4 285 290 330 319 241 225 232 233 282 196 129 154 20 90 236 210 248 246 253 283 344 303 285 300 183 181 183 189 194 197 194
332 331 330 328 323 327 333 3 10 350 50 266 253 251 276 284 284 269 20 326 222 139 182 221 161 196 225 195 226 210 254 265 269 274 344 282 275 252 184 195 194 197 201 197 206
330 329 330 328 322 324 320 76 95 271 296 237 242 248 255 296 305 284 138 186 154 193 191 254 222 224 260 203 228 215 260 272 291 264 153 281 268 270 189 203 198 200 205 196 176
324 325 333 330 322 16 294 212 102 143 263 309 240 224 255 158 231 262 172 213 205 206 204 220 220 214 194 249 238 237 207 267 239 299 218 268 295 319 252 205 210 210 212 193 183
328 331 338 334 37 323 297 304 343 232 30 284 344 310 330 232 262 235 199 188 202 206 216 230 245 219 223 243 156 262 225 251 272 323 276 111 275 300 296 264 222 207 201 203 190
321 326 328 339 281 309 273 344 327 68 352 284 323 249 300 236 273 297 228 135 217 197 124 237 215 189 221 230 162 244 249 229 255 253 235 265 158 260 333 301 238 208 204 201 195
320 317 327 145 255 247 316 310 48 47 260 324 7 336 351 310 287 293 317 78 198 186 200 222 233 213 230 245 178 244 298 56 56 93 234 241 171 237 231 222 275 193 203 201 194
315 309 313 204 234 342 322 28 40 129 337 345 335 334 331 307 313 315 324 231 168 139 230 220 237 245 207 270 129 151 63 297 326 337 226 241 171 237 229 246 227 225 202 202 193
318 313 241 212 249 347 33 50 106 273 275 306 345 319 315 5 318 322 349 6 323 50 99 195 264 185 207 184 195 185 152 162 261 275 281 293 239 259 235 255 271 266 210 192 187
323 326 308 271 180 100 71 70 205 219 300 354 328 342 316 325 266 354 335 323 347 322 189 158 259 269 257 245 154 214 160 200 167 352 83 249 289 315 297 314 330 312 176 188 184
335 353 292 10 155 66 71 239 250 239 322 341 258 255 276 315 328 8 334 330 337 337 122 246 302 252 301 4 245 170 174 220 52 239 273 282 280 246 304 302 321 342 183 175 175
29 8 284 160 75 46 118 236 273 254 281 259 262 255 258 252 252 302 299 296 355 314 337 26 89 288 359 188 246 324 158 130 118 144 190 270 271 238 269 300 277 247 204 180 172
8 19 263 38 39 16 163 209 273 291 308 252 225 219 250 276 282 262 260 248 324 321 337 328 133 299 249 271 240 175 225 157 124 272 244 183 261 294 311 293 258 143 141 121 129
33 272 309 83 306 325 301 290 253 310 298 309 289 330 323 308 338 288 338 283 327 337 296 310 357 6 345 355 10 347 276 206 150 125 223 176 276 48 7 334 333 141 151 137 138
49 8 325 43 28 95 348 284 316 301 263 317 291 332 340 360 350 301 327 311 321 312 328 102 117 152 193 235 274 301 280 146 129 121 177 211 297 6 353 351 353 348 354 44 59
49 298 195 317 331 352 267 279 327 340 318 3 340 360 330 346 339 323 278 316 322 340 347 77 256 162 229 264 262 37 285 175 112 161 117 351 72 4 351 355 354 7 13 6 53
83 36 349 283 308 336 348 355 308 334 268 306 323 307 105 133 184 270 282 226 248 315 342 347 283 277 310 293 3 42 354 15 77 98 100 108 68 20 38 44 29 22 17 33 13
301 349 108 282 332 9 188 333 298 338 288 307 320 323 316 243 236 251 233 240 234 259 280 187 99 25 304 332 344 337 26 335 64 33 107 115 154 72 66 56 45 28 23 24 41